Погода Максимкин Яр

Погода Максимкин Яр : погода сейчас, прогноз погоды и архив. Всё, что Вы хотите узнать о погоде Максимкин Яр!

Поиск расширенной информации на нашем сайте:

Другие новости

Новости СМИ2

Главная страница сайта

Новости сайта

02.10.2013

Напоминаем, что на нашем новом сайте вы можете получить высокодетализированные прогнозы погоды по пунктам России, СНГ и мира (включающие важные для авиации метеовеличины, такие как направление и скорость ветра, видимость, явления погоды, количество и форма облачности, нижняя и верхняя граница облачности), а также ознакомиться с разнообразными материалами по авиационной метеорологии и подборкой полезных ссылок на эту тему.

Сайт Метеоцентр.Азия посвящён разработке технологий оптимизации авиаметеорологического обслуживания, включая проектирование и перспективное создание нескольких автоматизированных авиаметеорологических систем:
- система выпуска высокодетальных прогностических карт явлений погоды для нижнего воздушного пространства по России и ближнему зарубежью;
- система верификации прогнозов TAF (выпускаемых синоптиками официальных АМСГ РФ и ближнего зарубежья) и AUTOTAF (выпускаемых сайтом Метеоцентр.Азия) - выявление ошибок, онлайн-сопоставление с фактической погодой METAR, автоматическое внесение коррективов в прогнозы при резком отклонении фактической погоды от прогноза, подсчёт оправдываемости прогнозов по элементам и в целом;
- система обработки, анализа и отображения авиаметеорологической информации для применения провайдерами метеорологической информации.


Погода Максимкин Яр - сегодня

Время (UTC), дата Ветер
(°,м/с) 
Видим.   Явления Облачность Т
(°С)
Тd
(°С)
f(%) Тe
(°С)
Pmin
(гПа)
dP
(гПа)
Po
(мм)
O2
(г/м3)
Тmin Tmax R s Состояние
почвы
09 15.01.17 250 (З) 20000 м    ясно 
-36.6 -41 63 -38  1040.7  1.9  769  360           
12 15.01.17 230 (ЮЗ) 20000 м    ясно 
-37.8 -42 65 -39  1042.6  1.8  770  362    -35.7       
15 15.01.17 230 (ЮЗ) 20000 м    ясно 
-38.2 -42.6 63 -39  1043.4  0.7  771  363           
18 15.01.17 тихо ()   20000 м    ясно 
-38.8 -43.3 63 -39  1043.9  0.5  771  364           
21 15.01.17 тихо ()   20000 м    ясно 
-39.5 -44.2 61 -40  1044.4  0.4  771  366           
00 16.01.17 тихо ()   20000 м    ясно 
-41.4 -46.3 59 -41  1044.6  0.1  772  369  -41.4      79  равномерный
сухой снег
100% 
03 16.01.17 тихо ()   20000 м    10/0 верхняя 
[Ci fib]
-41.7 -46.6 59 -42  1045.3  0.6  772  369  -42.2         
06 16.01.17 130 (ЮВ) 20000 м    10/0 верхняя 
[Ci fib]
-33.9 -37.9 67 -35  1043.8  -0.9  771  357           
09 16.01.17 100 (В) 20000 м    10/0 средняя, верхняя 
[As trans|Ci fib]
-30.6 -34.3 70 -31  1043.2  -0.3  771  352           
12 16.01.17 110 (В) 4000 м  слаб. снег  10/0 средняя 
[As op]
-31.5 -35.3 69 -32  1043.6  0.3  771  353    -30.5  0.0     
15 16.01.17 100 (В) 20000 м  {снег}  4/0 верхняя 
[Ci sp]
-32.7 -36.5 69 -34  1043.5  -0.2  771  355           
18 16.01.17 тихо ()   20000 м  {снег}  ясно 
-32.9 -36.8 68 -33  1043.3  -0.2  771  355           
21 16.01.17 100 (В) 20000 м    ясно 
-35.8 -40 65 -37  1043.5  771  360           
00 17.01.17 110 (В) 20000 м    10/0 верхняя 
[Ci fib]
-33.1 -37 68 -34  1043.4  0.1  771  356  -37.1    0.0  79  равномерный
сухой снег
100% 
03 17.01.17 120 (ЮВ) 20000 м    3/0 верхняя 
[Ci fib]
-31.6 -35.3 70 -35  1043.7  0.4  771  354           
06 17.01.17 130 (ЮВ) 20000 м    10/0 верхняя 
[Ci fib]
-27.2 -30.8 72 -31  1042.8  -0.7  771  347           
09 17.01.17 150 (ЮВ) 20000 м    9/0 средняя 
[Ac As]
-23.9 -27.3 73 -24  1041.6  -0.9  770  342           
12 17.01.17 150 (ЮВ) 4000 м  слаб. снег  10/0 средняя 
[As op]
-22.7 -25.8 76 -26  1040.5  -1  769  340    -22.7  0.0     
15 17.01.17 160 (Ю) 20000 м  {снег}  10/0 средняя 
[As op]
-20.3 -23 79 -25  1038  -2.4  768  336           
18 17.01.17 180 (Ю) 20000 м  {снег}  10/0 средняя 
[Ac und]
-19.6 -22.2 80 -22  1036.3  -1.7  766  334           
21 17.01.17 200 (Ю) 4000 м  слаб. снег  10/5 600 м средняя 
[Sc|As op]
-17.6 -20.2 80 -22  1033.4  -2.7  764  331           
00 18.01.17 210 (ЮЗ) 4000 м  слаб. снег  10/6 600 м средняя 
[Sc|As op]
-16.9 -19.4 81 -21  1031.8  -1.6  763  329  -22.7    0.0  79  равномерный
сухой снег
100% 
03 18.01.17 200 (Ю) 4000 м  слаб. ливневой снег  10/10 600 м кучево-дожд. 
[Cb cap]
-17.6 -20 81 -20  1031.1  -0.6  763  330           
06 18.01.17 230 (ЮЗ) 4000 м  слаб. ливневой снег  10/10 600 м кучево-дожд. 
[Cb cap]
-17.2 -19.5 82 -20  1031  -0.1  763  329           
09 18.01.17 230 (ЮЗ) 4000 м  слаб. ливневой снег  10/10 600 м кучево-дожд. 
[Cb cap]
-17.2 -19.5 82 -21  1031.4  0.4  763  330           
Время (UTC), дата Ветер
(°,м/с) 
Видим.   Явления Облачность Т
(°С)
Тd
(°С)
f(%) Тe
(°С)
Pmin
(гПа)
dP
(гПа)
Po
(мм)
O2
(г/м3)
Тmin Tmax R s Состояние
почвы

Для получения пояснительной информации подведите курсор к названию столбца.

ПОГОДА Максимкин Яр - архив

Всё, что Вы хотите узнать о погоде Максимкин Яр - удобно и подробно!

Выберите нужную дату (начиная с 1 января 2015* года) и нажмите кнопку "Найти".
Будут отображены архивные сводки погоды по пункту Максимкин Яр, начиная с указанной даты.


Отображать данные в формате CSV (для использования в таблицах Excel)


Внимание! Наш архив погоды предназначен исключительно для личного некоммерческого использования в познавательных целях. Если Вам необходимы официальные справки о состоянии погоды (для производственных, юридических, коммерческих и т.п. целей), обращайтесь в органы Росгидромета.

*Примечание: данная дата относится к архиву по метеостанциям СССР (Россия, СНГ, Балтия).
Архив по метеостанциям Зарубежной Европы и Азии (кроме Китая) хранится 10 дней, по другим регионам земного шара (Китай, Африка, Америка, Австралия, Океания) - 1 день.

Максимкин Яр - район местоположения метеостанции


Название, широта, долгота, высота метеостанции:
Максимкин Яр 58.6°ш. 86.7°д. 105 м над ур. моря [Российская Федерация]

Дополнительная информация

В oтличие oт бoльшинства пoгoдных сайтoв мы публикуем пoдрoбную метеoинфoрмацию в детальнoм прoфессиoнальнoм фoрмате.

Характеристики температуры и влажнoсти вoздуха измеряются на высoте 2 м в тени вдали oт зданий и деревьев.
Скoрoсть ветра измеряется на высoте 10 м (на урoвне рoста челoвека скoрoсть ветра ниже в 1.5-2 раза). Если метеoстанция нахoдится в гoрoде или в лесу, тo скoрoсть ветра занижена на 2-4 м/с пo сравнению с oткрытым местoм. Скoрoсть ветра над акватoриями крупных рек и oзёр, а также на вершинах хoлмoв на 2-5 м/с выше, чем в oбычных услoвиях.
Атмoсфернoе давление в разных тoчках местнoсти мoжет значительнo oтличаться oт давления на метеoстанции, в зависимoсти oт услoвий рельефа (при пoдъёме на 10 м давление пoнижается примернo на 1 мм рт.ст.).